EHI
0 0 0 0 0 0 0 0 0 0 0 0 0 0 0 0 0 0 0 0 0 0 0 1 1 1 1 3 3 3 2 1 0 1 2 3 2 1 0 0 0 0 0 0
0 0 0 0 0 0 0 0 0 0 0 0 0 0 0 0 0 0 0 0 0 0 1 2 2 1 1 2 3 2 2 1 0 0 1 1 1 1 0 0 0 0 0 0
0 0 0 0 0 0 0 0 0 0 0 0 0 0 0 0 0 0 0 0 0 0 1 2 2 1 1 1 2 2 1 0 0 0 0 0 1 1 1 0 0 0 0 0
0 0 0 0 0 0 0 0 0 0 0 0 0 0 0 0 0 0 0 0 0 0 0 1 1 0 0 1 2 3 2 2 2 1 1 1 2 2 1 1 0 0 0 0
0 0 0 0 0 0 0 0 0 0 0 0 0 0 0 0 0 0 0 0 0 0 0 0 0 0 0 0 1 3 3 4 5 4 2 2 2 2 2 2 1 1 0 0
0 0 0 0 0 0 0 0 0 0 0 0 0 0 0 0 0 0 0 0 0 0 0 0 0 0 0 0 1 2 3 4 6 5 2 1 1 1 2 3 3 2 1 0
0 0 0 0 0 0 0 0 0 0 0 0 0 0 0 0 0 0 0 0 0 0 0 0 0 0 0 0 0 1 2 3 4 3 1 0 0 0 1 3 3 2 1 0
0 0 0 0 0 0 0 0 0 0 0 0 0 0 0 0 0 0 0 0 0 0 0 0 0 0 0 0 0 0 1 1 2 3 2 1 0 0 1 3 3 1 0 0
0 0 0 0 0 0 0 0 0 0 0 0 0 0 0 0 0 0 0 0 0 0 0 0 0 0 0 0 0 0 0 0 1 2 2 1 0 1 2 3 2 1 0 0
0 0 0 0 0 0 0 0 0 0 0 0 0 0 0 0 0 0 0 0 0 0 0 0 0 0 0 0 0 0 0 0 0 1 1 0 0 1 2 3 2 1 0 0
0 0 0 0 0 0 0 0 0 0 0 0 0 0 0 0 0 0 0 0 0 0 0 0 0 0 0 0 0 0 0 0 0 0 0 0 0 0 1 2 2 1 0 0
0 0 0 0 0 0 0 0 0 0 0 0 0 0 0 0 0 0 0 0 0 0 0 0 0 0 0 0 0 0 0 0 0 0 0 0 0 0 1 2 1 0 0 0
0 0 0 0 0 0 0 0 0 0 0 0 0 0 0 0 0 0 0 0 0 0 0 0 0 0 0 0 0 0 0 0 0 0 0 0 0 0 1 2 1 0 0 0
0 0 0 0 0 0 0 0 0 0 0 0 0 0 0 0 0 0 0 0 0 0 0 0 0 0 0 0 0 0 0 0 0 0 0 0 0 0 1 2 1 0 0 0
0 0 0 0 0 0 0 0 0 0 0 0 0 0 0 0 0 0 0 0 0 0 0 0 0 0 0 0 0 0 0 0 0 0 0 0 1 1 2 2 1 0 0 0
0 0 0 0 0 0 0 0 0 0 0 0 0 0 0 0 0 0 0 0 0 0 0 0 0 0 0 0 0 0 0 0 0 0 0 1 2 2 2 2 1 1 1 2
0 0 0 0 0 0 0 0 0 0 0 0 0 0 0 0 0 0 0 0 0 0 0 0 0 0 0 0 0 0 0 0 0 0 2 4 4 2 1 1 1 1 3 4
0 0 0 0 0 0 0 0 0 0 0 0 0 0 0 0 0 0 0 0 0 0 0 0 0 0 0 0 0 0 0 0 0 2 4 6 5 2 0 0 0 1 4 6
0 0 0 0 0 0 0 0 0 0 0 0 0 0 0 0 0 0 0 0 0 0 0 0 0 0 0 0 0 0 0 0 1 3 5 6 5 2 0 0 1 2 4 6
0 0 0 0 0 0 0 0 0 0 0 0 0 0 0 0 0 0 0 0 0 0 0 0 0 0 0 0 0 0 0 0 2 4 6 7 5 3 1 0 1 2 4 5
0 0 0 0 0 0 0 0 0 0 0 0 0 0 0 0 0 0 0 0 0 0 0 0 0 0 0 0 0 0 0 0 2 5 6 7 6 4 2 1 0 1 3 4
0 0 0 0 0 0 0 0 0 0 0 0 0 0 0 0 0 0 0 0 0 0 0 0 0 0 0 0 0 0 0 0 1 4 7 7 6 4 2 1 0 1 2 3
0 0 0 0 0 0 0 0 0 0 0 0 0 0 0 0 0 0 0 0 0 0 0 0 0 0 0 0 0 0 0 0 1 3 6 6 4 2 1 1 0 1 2 3
0 0 0 0 0 0 0 0 0 0 0 0 0 0 0 0 0 0 0 0 0 0 0 0 0 0 0 0 0 0 0 0 0 2 4 4 2 1 1 1 0 1 2 3
0 0 0 0 0 0 0 0 0 0 0 0 0 0 0 0 0 0 0 0 0 0 0 0 0 0 0 0 0 0 0 0 0 0 1 1 0 0 1 1 0 1 2 2
0 0 0 0 0 0 0 0 0 0 0 0 0 0 0 0 0 0 0 0 0 0 0 0 0 0 0 0 0 0 0 0 0 0 0 0 0 0 0 0 0 0 1 1
Wind_Speed
3 5 5 4 4 3 3 4 3 1 2 2 3 3 2 2 2 1 1 1 1 1 1 1 2 2 3 3 3 4 4 4 4 3 2 3 3 2 2 2 2 3 3 3
6 4 2 1 3 5 6 6 4 2 2 3 3 3 2 2 2 1 1 1 1 1 1 1 1 2 2 3 3 4 4 4 4 3 3 3 3 2 2 2 3 3 3 3
5 2 2 4 4 5 6 6 4 3 2 4 4 4 4 3 2 2 1 1 1 1 1 2 2 2 1 2 3 3 4 4 5 5 3 3 3 2 3 3 2 3 3 3
3 1 3 4 4 5 5 3 4 5 6 3 4 4 2 3 3 2 2 2 1 1 1 1 1 1 1 2 2 3 4 4 4 5 5 5 4 4 3 3 3 4 4 4
4 2 3 3 2 3 1 0 4 5 6 5 5 6 1 3 2 2 2 2 2 1 1 1 1 1 1 1 1 2 3 3 4 4 5 5 5 4 3 3 4 4 3 3
2 2 1 1 1 1 2 4 4 5 6 6 3 5 2 2 1 1 1 1 1 1 0 1 1 1 1 1 1 1 2 3 4 4 6 6 6 5 5 5 5 4 3 3
5 4 2 1 4 4 4 6 5 6 5 3 2 4 2 2 2 2 1 1 1 1 1 1 1 1 1 1 2 2 2 3 4 5 6 6 6 5 5 5 5 4 4 4
6 5 3 1 3 3 4 6 5 3 3 1 3 4 1 2 1 1 0 1 1 1 1 0 1 1 1 2 2 2 2 3 4 5 5 5 6 4 3 4 4 5 4 4
3 3 4 1 1 3 4 4 4 6 4 5 3 2 2 2 2 2 2 1 1 0 1 1 1 1 2 2 2 3 3 3 4 5 5 5 5 5 4 5 5 4 4 4
3 3 3 2 3 2 2 2 4 5 5 5 4 5 2 3 1 1 1 1 1 1 1 2 1 1 1 2 2 3 3 3 3 4 4 4 5 6 5 5 5 5 5 5
4 4 4 4 4 3 4 4 4 5 5 5 4 1 3 1 1 1 2 1 2 2 2 2 2 2 2 1 2 2 3 3 3 4 4 5 5 5 6 5 5 5 5 6
2 5 4 3 1 2 4 4 6 6 6 6 6 1 5 1 2 3 3 3 3 3 2 2 2 2 2 2 2 3 3 3 3 4 4 5 5 5 6 6 6 6 5 5
2 5 5 6 6 5 4 3 5 6 6 7 8 3 5 1 3 4 4 4 3 3 2 2 2 2 2 2 2 3 3 3 3 4 5 5 5 6 5 5 5 6 6 5
4 6 7 6 2 2 4 5 6 8 7 8 10 9 6 6 6 5 5 5 4 3 3 3 2 2 2 2 3 3 4 3 4 5 5 5 5 6 6 5 5 5 6 6
4 7 7 7 6 6 7 8 9 12 12 11 10 10 10 8 7 6 5 4 4 4 4 4 4 3 3 3 3 3 4 4 4 5 6 5 5 5 5 5 5 5 5 6
4 6 6 8 7 8 10 11 12 13 13 13 13 12 8 7 6 5 4 4 5 5 5 5 5 5 4 3 4 4 4 4 5 5 6 6 6 5 5 5 5 5 5 5
5 6 7 7 5 8 11 10 10 10 9 10 11 8 6 6 6 6 5 5 6 6 7 6 6 5 5 5 5 5 5 5 5 6 6 6 6 6 6 5 5 5 5 5
7 6 5 5 6 10 3 1 5 7 7 8 8 8 6 7 7 6 5 5 7 7 8 7 7 6 5 5 5 5 5 6 6 7 6 6 6 6 6 6 6 6 5 6
8 8 6 6 8 8 5 3 4 7 7 4 6 6 5 5 6 5 4 5 7 8 8 7 7 6 6 5 5 5 5 6 7 7 7 7 7 7 7 7 6 6 5 6
5 8 7 7 8 8 1 1 2 6 6 0 2 4 4 5 6 4 4 7 8 8 7 7 6 6 5 5 5 6 6 6 6 6 7 7 7 7 7 7 6 5 5 6
7 8 10 10 9 7 1 0 3 7 1 2 4 5 6 7 7 7 7 7 7 8 8 7 6 5 5 5 5 6 6 6 5 5 6 6 7 7 7 6 6 5 5 6
6 6 8 8 9 5 3 2 4 4 4 4 6 6 7 8 8 7 7 7 7 7 7 7 6 5 5 4 5 6 6 5 4 5 6 6 6 6 6 6 6 6 5 6
6 5 3 5 4 2 1 3 4 5 6 6 6 7 7 8 8 7 7 7 7 8 7 6 6 6 5 5 5 7 6 5 5 5 6 6 6 5 5 6 6 6 5 5
5 4 6 7 6 5 5 6 6 6 7 7 7 7 7 8 8 8 7 7 7 8 7 7 7 6 6 5 6 6 5 5 6 6 6 6 6 6 6 5 5 5 5 5
5 5 7 8 7 6 6 6 6 7 7 7 7 8 8 8 8 8 7 7 7 7 7 6 6 6 7 6 5 5 5 6 7 6 6 5 5 6 5 5 4 5 5 5
6 7 7 7 6 7 7 6 8 8 8 8 8 8 8 8 8 9 8 7 7 8 7 7 7 7 7 6 5 5 5 6 6 6 6 5 5 5 5 5 4 3 3 4
Wind_Direction
174 205 204 204 230 268 245 236 225 184 143 222 221 229 220 199 215 236 207 179 166 196 197 171 161 166 171 175 190 180 180 175 167 167 184 173 173 172 159 147 146 162 158 151
183 202 226 218 204 218 228 235 227 171 149 231 234 251 230 199 214 234 247 208 170 171 177 164 162 166 178 187 197 187 188 182 177 180 192 184 177 172 161 162 158 167 159 148
204 99 154 192 193 214 225 245 244 228 196 213 246 233 198 184 197 199 228 243 216 225 221 182 174 165 190 207 211 207 195 190 187 183 185 175 160 161 164 171 162 165 163 157
190 150 181 196 207 239 228 246 247 229 234 222 253 269 172 191 199 203 216 227 231 226 234 206 181 186 215 225 215 210 197 195 189 188 192 184 183 184 182 176 165 166 164 166
157 161 192 205 216 249 311 266 227 234 247 254 234 259 176 168 223 234 226 216 220 228 230 216 203 218 232 205 201 216 196 192 183 195 193 197 192 191 175 170 165 165 157 169
151 142 285 297 135 210 175 176 178 214 240 245 246 255 240 160 283 289 216 195 193 194 192 196 163 181 196 179 181 199 196 189 183 191 198 198 194 193 183 178 170 170 166 176
183 172 155 205 188 169 220 231 220 211 212 222 141 244 266 54 8 328 323 161 170 165 161 147 145 159 172 181 187 197 201 194 190 197 201 200 202 203 199 191 183 182 180 186
204 180 158 203 242 222 223 250 262 273 263 203 192 240 110 61 33 3 5 107 132 139 138 183 198 205 195 193 202 207 213 211 201 205 207 204 197 202 204 205 195 190 192 194
231 168 127 119 309 250 210 224 284 283 277 267 226 210 164 118 70 50 47 57 66 75 302 263 230 233 218 201 205 214 216 222 213 211 209 206 202 200 198 201 202 197 189 189
286 218 147 149 179 102 289 223 223 241 258 255 239 236 209 152 77 59 49 2 316 314 311 303 277 246 237 221 219 221 222 224 217 213 208 208 208 199 201 201 202 199 190 187
268 241 175 181 208 202 185 201 234 241 261 271 262 174 78 104 20 337 336 322 305 302 298 301 302 287 254 227 221 222 226 225 219 213 208 205 199 199 195 198 198 205 195 188
252 263 223 196 132 293 244 237 238 247 236 251 274 266 116 126 352 337 330 324 307 300 290 292 304 297 278 257 244 234 232 223 221 210 210 209 193 197 196 195 196 200 192 190
218 242 228 190 178 181 204 214 237 256 257 245 247 229 134 200 318 322 320 320 312 296 289 285 291 293 287 278 261 245 243 229 220 211 208 209 201 203 201 200 197 199 192 191
242 239 249 259 306 229 229 226 229 238 245 249 247 258 254 277 292 303 310 308 301 291 285 285 286 285 284 276 264 247 239 230 220 213 210 209 207 207 209 202 199 200 190 191
245 243 242 258 267 257 252 247 238 241 251 261 267 267 276 285 293 299 300 299 292 285 281 281 282 283 280 271 260 245 234 226 219 215 212 210 211 208 204 195 200 200 194 193
242 246 241 243 241 248 253 249 244 245 250 255 263 270 284 290 292 287 290 295 291 292 290 287 280 279 276 269 262 250 236 228 221 219 215 207 210 204 198 195 194 196 195 194
224 237 245 244 241 255 247 240 237 236 242 250 256 269 286 282 283 285 289 286 290 299 299 290 283 277 273 269 262 253 245 232 224 218 213 201 205 202 198 189 189 193 198 193
232 230 244 254 245 241 245 206 242 242 249 255 267 276 282 286 289 280 276 286 297 304 298 291 284 275 271 269 263 257 243 234 226 214 207 198 197 197 192 190 192 195 197 192
231 223 231 239 246 258 246 229 234 246 251 256 270 282 295 297 276 258 281 298 300 301 297 290 282 275 271 266 258 252 242 235 224 213 205 199 195 193 192 195 198 196 197 192
198 220 230 232 243 251 244 102 283 261 243 158 297 302 309 287 268 287 323 309 304 303 300 294 281 272 267 263 255 247 240 236 229 216 208 199 197 194 194 198 198 194 195 192
186 202 222 235 244 253 359 42 223 239 311 14 305 302 294 283 294 307 305 303 303 302 302 297 283 273 268 261 250 247 243 237 233 219 208 198 195 197 197 194 192 193 193 189
217 214 216 224 235 238 99 174 239 310 343 313 302 295 289 295 304 305 304 305 304 305 305 300 289 283 275 262 248 246 247 246 234 212 204 198 196 194 190 187 187 190 188 186
230 237 246 238 256 359 250 274 305 312 304 304 302 300 297 296 300 304 305 306 304 304 305 301 296 291 278 267 259 253 249 241 231 214 201 196 196 193 189 188 187 186 189 191
228 240 248 255 250 259 273 283 289 293 297 303 302 301 297 295 298 302 304 304 302 301 303 302 297 292 287 278 269 261 253 239 226 213 203 196 196 191 189 193 193 193 193 197
250 230 242 253 264 267 259 268 284 294 296 296 296 297 294 294 294 297 299 302 302 302 300 295 291 290 289 288 280 264 247 234 223 208 202 202 202 196 192 194 201 205 203 208
234 234 242 257 265 269 273 279 287 288 289 291 292 293 289 289 291 295 296 298 299 298 296 292 291 289 288 286 284 274 246 227 220 208 203 201 200 198 197 196 197 201 218 200